| time (UTC) | temp F | wind direction | speed MPH | gust MPH | rain 1hr in | rain 24hr in | rain mn in | humidity % | barometer mb |
| 20260902203023 | 95 | 300 | 2.0 | 7.0 | 0.00 | 0.00 | 0.00 | 63 | 1018.8 |
| 20260902201528 | 95 | 227 | 1.0 | 7.0 | 0.00 | 0.00 | 0.00 | 62 | 1018.9 |
| 20260902200020 | 95 | 252 | 3.0 | 8.0 | 0.00 | 0.00 | 0.00 | 60 | 1019.0 |
| 20260902194517 | 95 | 258 | 3.0 | 7.0 | 0.00 | 0.00 | 0.00 | 62 | 1019.1 |
| 20260902193015 | 95 | 278 | 4.0 | 8.0 | 0.00 | 0.00 | 0.00 | 61 | 1019.3 |
| 20260902191519 | 94 | 258 | 3.0 | 7.0 | 0.00 | 0.00 | 0.00 | 62 | 1019.5 |
| 20260902190014 | 94 | 307 | 2.0 | 11.0 | 0.00 | 0.00 | 0.00 | 63 | 1019.6 |
| 20260902184507 | 94 | 223 | 1.0 | 6.0 | 0.00 | 0.00 | 0.00 | 62 | 1019.9 |
| 20260902183006 | 94 | 271 | 4.0 | 12.0 | 0.00 | 0.00 | 0.00 | 62 | 1019.9 |
| 20260902181507 | 94 | 229 | 2.0 | 7.0 | 0.00 | 0.00 | 0.00 | 63 | 1019.9 |
| 20260902174559 | 93 | 228 | 3.0 | 7.0 | 0.00 | 0.00 | 0.00 | 63 | 1020.1 |
| 20260902173056 | 92 | 285 | 2.0 | 7.0 | 0.00 | 0.00 | 0.00 | 64 | 1020.3 |
| 20260902171602 | 92 | 273 | 3.0 | 10.0 | 0.00 | 0.00 | 0.00 | 64 | 1020.6 |
| 20260902170052 | 92 | 269 | 4.0 | 9.0 | 0.00 | 0.00 | 0.00 | 65 | 1020.7 |
| 20260902164556 | 91 | 302 | 2.0 | 9.0 | 0.00 | 0.00 | 0.00 | 70 | 1020.7 |
| 20260902163048 | 91 | 307 | 2.0 | 7.0 | 0.00 | 0.00 | 0.00 | 68 | 1021.0 |
| 20260902161551 | 90 | 213 | 1.0 | 8.0 | 0.00 | 0.00 | 0.00 | 69 | 1021.0 |
| 20260902160040 | 90 | 195 | 2.0 | 8.0 | 0.00 | 0.00 | 0.00 | 68 | 1021.0 |
| 20260902154543 | 90 | 200 | 2.0 | 5.0 | 0.00 | 0.00 | 0.00 | 70 | 1020.9 |
| 20260902153038 | 89 | 206 | 2.0 | 6.0 | 0.00 | 0.00 | 0.00 | 72 | 1021.0 |
| 20260902151531 | 89 | 243 | 2.0 | 5.0 | 0.00 | 0.00 | 0.00 | 74 | 1021.0 |
| 20260902150028 | 88 | 224 | 0.0 | 0.0 | 0.00 | 0.00 | 0.00 | 75 | 1021.0 |
| 20260902144523 | 86 | 212 | 0.0 | 0.0 | 0.00 | 0.00 | 0.00 | 78 | 1021.2 |
| 20260902143021 | 85 | 219 | 0.0 | 0.0 | 0.00 | 0.00 | 0.00 | 79 | 1021.3 |
| 20260902141523 | 83 | 309 | 0.0 | 0.0 | 0.00 | 0.00 | 0.00 | 83 | 1021.2 |
| 20260902140014 | 82 | 259 | 0.0 | 0.0 | 0.00 | 0.00 | 0.00 | 83 | 1021.3 |
| 20260902134506 | 79 | 252 | 0.0 | 0.0 | 0.00 | 0.00 | 0.00 | 86 | 1021.3 |
| 20260902133002 | 78 | 224 | 0.0 | 0.0 | 0.00 | 0.00 | 0.00 | 87 | 1021.5 |
| 20260902131559 | 77 | 236 | 0.0 | 0.0 | 0.00 | 0.00 | 0.00 | 90 | 1021.4 |
| 20260902130057 | 75 | 223 | 0.0 | 0.0 | 0.00 | 0.00 | 0.00 | 95 | 1021.4 |
| 20260902124603 | 73 | 229 | 0.0 | 0.0 | 0.00 | 0.00 | 0.00 | 97 | 1021.5 |
| 20260902123055 | 73 | 215 | 0.0 | 0.0 | 0.00 | 0.00 | 0.00 | 98 | 1021.4 |
| 20260902121557 | 72 | 205 | 0.0 | 0.0 | 0.00 | 0.00 | 0.00 | 98 | 1021.1 |
| 20260902120052 | 71 | 205 | 0.0 | 0.0 | 0.00 | 0.00 | 0.00 | 98 | 1021.1 |
| 20260902114550 | 71 | 205 | 0.0 | 0.0 | 0.00 | 0.00 | 0.00 | 98 | 1020.9 |
| 20260902113049 | 71 | 205 | 0.0 | 0.0 | 0.00 | 0.00 | 0.00 | 98 | 1020.8 |
| 20260902111547 | 71 | 205 | 0.0 | 0.0 | 0.00 | 0.00 | 0.00 | 98 | 1020.7 |
| 20260902110047 | 71 | 205 | 0.0 | 0.0 | 0.00 | 0.00 | 0.00 | 98 | 1020.6 |
| 20260902104548 | 71 | 205 | 0.0 | 0.0 | 0.00 | 0.00 | 0.00 | 98 | 1020.6 |
| 20260902103047 | 71 | 205 | 0.0 | 0.0 | 0.00 | 0.00 | 0.00 | 97 | 1020.7 |
| 20260902101547 | 71 | 205 | 0.0 | 0.0 | 0.00 | 0.00 | 0.00 | 97 | 1020.6 |
| 20260902100042 | 71 | 205 | 0.0 | 0.0 | 0.00 | 0.00 | 0.00 | 97 | 1020.6 |
| 20260902094541 | 71 | 205 | 0.0 | 0.0 | 0.00 | 0.00 | 0.00 | 97 | 1020.6 |
| 20260902093046 | 71 | 205 | 0.0 | 0.0 | 0.00 | 0.00 | 0.00 | 97 | 1020.5 |
| 20260902091544 | 71 | 205 | 0.0 | 0.0 | 0.00 | 0.00 | 0.00 | 96 | 1020.4 |
| 20260902090037 | 72 | 205 | 0.0 | 0.0 | 0.00 | 0.00 | 0.00 | 96 | 1020.5 |
| 20260902084547 | 72 | 205 | 0.0 | 0.0 | 0.00 | 0.00 | 0.00 | 96 | 1020.3 |
| 20260902083041 | 72 | 205 | 0.0 | 0.0 | 0.00 | 0.00 | 0.00 | 96 | 1019.9 |
| 20260902081532 | 72 | 205 | 0.0 | 0.0 | 0.00 | 0.00 | 0.00 | 96 | 1019.9 |
| 20260902080032 | 72 | 205 | 0.0 | 0.0 | 0.00 | 0.00 | 0.00 | 96 | 1019.8 |
| 20260902074530 | 72 | 205 | 0.0 | 0.0 | 0.00 | 0.00 | 0.00 | 95 | 1019.8 |
| 20260902073030 | 72 | 205 | 0.0 | 0.0 | 0.00 | 0.00 | 0.00 | 95 | 1019.7 |
| 20260902071535 | 73 | 205 | 0.0 | 0.0 | 0.00 | 0.00 | 0.00 | 95 | 1019.8 |
| 20260902070028 | 73 | 205 | 0.0 | 0.0 | 0.00 | 0.00 | 0.00 | 94 | 1019.8 |
| 20260902064526 | 73 | 205 | 0.0 | 0.0 | 0.00 | 0.00 | 0.00 | 94 | 1019.8 |
| 20260902063029 | 74 | 205 | 0.0 | 0.0 | 0.00 | 0.00 | 0.00 | 94 | 1019.8 |
| 20260902061539 | 74 | 205 | 0.0 | 0.0 | 0.00 | 0.00 | 0.00 | 93 | 1019.9 |
| 20260902060023 | 74 | 205 | 0.0 | 0.0 | 0.00 | 0.00 | 0.00 | 93 | 1019.8 |
| 20260902054519 | 75 | 205 | 0.0 | 0.0 | 0.00 | 0.00 | 0.00 | 92 | 1019.8 |
| 20260902053020 | 75 | 205 | 0.0 | 0.0 | 0.00 | 0.00 | 0.00 | 92 | 1019.9 |
| 20260902051519 | 74 | 205 | 0.0 | 0.0 | 0.00 | 0.00 | 0.00 | 92 | 1019.9 |
| 20260902050017 | 75 | 205 | 0.0 | 0.0 | 0.00 | 0.00 | 0.00 | 92 | 1019.8 |
| 20260902044515 | 75 | 205 | 0.0 | 0.0 | 0.00 | 0.00 | 0.00 | 91 | 1019.9 |
| 20260902043014 | 75 | 205 | 0.0 | 0.0 | 0.00 | 0.00 | 0.00 | 91 | 1019.8 |
| 20260902041513 | 75 | 205 | 0.0 | 0.0 | 0.00 | 0.00 | 0.00 | 91 | 1019.9 |
| 20260902040010 | 76 | 205 | 0.0 | 0.0 | 0.00 | 0.00 | 0.00 | 90 | 1020.0 |
| 20260902034508 | 76 | 205 | 0.0 | 0.0 | 0.00 | 0.00 | 0.00 | 89 | 1019.8 |
| 20260902033006 | 76 | 205 | 0.0 | 0.0 | 0.00 | 0.00 | 0.00 | 90 | 1019.8 |
| 20260902031505 | 76 | 205 | 0.0 | 0.0 | 0.00 | 0.00 | 0.00 | 89 | 1019.8 |
| 20260902030004 | 77 | 205 | 0.0 | 0.0 | 0.00 | 0.00 | 0.00 | 88 | 1019.9 |
| 20260902024505 | 77 | 205 | 0.0 | 0.0 | 0.00 | 0.00 | 0.00 | 88 | 1019.8 |
| 20260902023003 | 77 | 205 | 0.0 | 0.0 | 0.00 | 0.00 | 0.00 | 88 | 1019.8 |
| 20260902021504 | 77 | 205 | 0.0 | 0.0 | 0.00 | 0.00 | 0.00 | 88 | 1019.9 |
| 20260902020002 | 78 | 205 | 0.0 | 0.0 | 0.00 | 0.00 | 0.00 | 87 | 1019.6 |
| 20260902014501 | 78 | 205 | 0.0 | 0.0 | 0.00 | 0.00 | 0.00 | 87 | 1019.7 |
| 20260902013101 | 78 | 205 | 0.0 | 0.0 | 0.00 | 0.00 | 0.00 | 87 | 1019.5 |
| 20260902011600 | 79 | 205 | 0.0 | 0.0 | 0.00 | 0.00 | 0.00 | 87 | 1019.4 |
| 20260902010100 | 79 | 205 | 0.0 | 0.0 | 0.00 | 0.00 | 0.00 | 86 | 1019.3 |
| 20260902004559 | 80 | 205 | 0.0 | 0.0 | 0.00 | 0.00 | 0.00 | 85 | 1019.2 |
| 20260902003058 | 80 | 205 | 0.0 | 0.0 | 0.00 | 0.00 | 0.00 | 85 | 1019.2 |
| 20260902001558 | 81 | 205 | 0.0 | 0.0 | 0.00 | 0.00 | 0.00 | 85 | 1019.1 |
| 20260902000101 | 82 | 205 | 0.0 | 0.0 | 0.00 | 0.00 | 0.00 | 83 | 1019.3 |
| 20260901234556 | 84 | 205 | 0.0 | 0.0 | 0.00 | 0.00 | 0.00 | 81 | 1019.3 |
| 20260901233056 | 87 | 205 | 0.0 | 0.0 | 0.00 | 0.00 | 0.00 | 77 | 1019.4 |
| 20260901231556 | 90 | 205 | 0.0 | 1.0 | 0.00 | 0.00 | 0.00 | 73 | 1019.4 |
| 20260901230055 | 93 | 207 | 0.0 | 2.0 | 0.00 | 0.00 | 0.00 | 66 | 1019.5 |
| 20260901224553 | 94 | 233 | 0.0 | 4.0 | 0.00 | 0.00 | 0.00 | 63 | 1019.5 |
| 20260901223051 | 95 | 224 | 0.0 | 3.0 | 0.00 | 0.00 | 0.00 | 66 | 1019.4 |
| 20260901221550 | 95 | 214 | 1.0 | 5.0 | 0.00 | 0.00 | 0.00 | 61 | 1019.4 |
| 20260901220049 | 95 | 241 | 3.0 | 6.0 | 0.00 | 0.00 | 0.00 | 59 | 1019.4 |
| 20260901214548 | 95 | 210 | 2.0 | 8.0 | 0.00 | 0.00 | 0.00 | 58 | 1019.3 |
| 20260901213109 | 95 | 239 | 2.0 | 6.0 | 0.00 | 0.00 | 0.00 | 59 | 1019.3 |
| 20260901211548 | 95 | 209 | 3.0 | 8.0 | 0.00 | 0.00 | 0.00 | 60 | 1019.3 |
| 20260901210047 | 95 | 215 | 1.0 | 7.0 | 0.00 | 0.00 | 0.00 | 60 | 1019.3 |
| 20260901204549 | 95 | 149 | 4.0 | 9.0 | 0.00 | 0.00 | 0.00 | 60 | 1019.3 |